Regional Weather Roundup
Issued by NWS

Home | Current Version | Previous Version | Graphics & Text | Print | Product List | Glossary On
Versions: 1 2 3 4 5 6 7 8 9 10 11 12 13 14 15 16 17 18 19 20 21 22 23 24 25 26 27 28 29 30 31 32 33 34 35 36 37 38 39 40 41 42 43 44 45 46 47 48 49 50
001
ASUS43 KIND 190559
RWRIN

WEATHER ROUNDUP FOR INDIANA
NATIONAL WEATHER SERVICE INDIANAPOLIS IN
100 AM EST THU JAN 19 2017

NOTE: "FAIR" INDICATES FEW OR NO CLOUDS BELOW 12,000 FEET WITH NO
SIGNIFICANT WEATHER AND/OR OBSTRUCTIONS TO VISIBILITY.

* - STATION DOES NOT REPORT WEATHER SUCH AS PRECIPITATION OR FOG.

+ - STATION NOT QUALITY CONTROLLED BY THE NATIONAL WEATHER SERVICE.
    USE DATA WITH CAUTION...ESPECIALLY DEWPOINT AND RELATIVE
    HUMIDITY OBSERVATIONS.

INZ001>003-010>013-019-020-190700-
NORTHWEST INDIANA

CITY           SKY/WX    TMP DP  RH WIND       PRES   REMARKS
MONTICELLO +   CLOUDY    35  32  90 S5        30.09F WCI  31
6HR MIN TEMP:  35; 6HR MAX TEMP:  37;


$$

LMZ046-743>745-190700-
SOUTHERN LAKE MICHIGAN

STATION/POSITION TIME  TEMP    WIND        PRES    WAVE
                       AIR SEA DIR/SP/G            HT
                 (UTC) (F)     (DEG/KT/KT) (MB)    (FT)
BURNS HARBOR     0540   37     190/ 10/ 13 1019.0S

$$

INZ004-005-014>016-021>024-190700-
NORTH CENTRAL INDIANA

CITY           SKY/WX    TMP DP  RH WIND       PRES   REMARKS
GOSHEN         CLOUDY    35  30  82 SW8       30.07F WCI  29
6HR MIN TEMP:  34; 6HR MAX TEMP:  35;

SOUTH BEND     CLOUDY    34  32  92 SW8       30.07F WCI  27
6HR MIN TEMP:  34; 6HR MAX TEMP:  35;


$$

INZ006>009-017-018-025>027-190700-
NORTHEAST INDIANA

CITY           SKY/WX    TMP DP  RH WIND       PRES   REMARKS
ANGOLA *+      CLOUDY    34  30  86 SW10      30.06S WCI  26
FORT WAYNE     CLOUDY    35  32  88 SW8       30.08F WCI  29
6HR MIN TEMP:  35; 6HR MAX TEMP:  36; 6HR PCP: TRACE;

KENDALLVILLE + CLOUDY    33  33 100 SW8       30.07F FOG     WCI  25

$$

INZ028-029-035-036-043>045-051>053-190700-
WEST CENTRAL INDIANA

CITY           SKY/WX    TMP DP  RH WIND       PRES   REMARKS
CRAWFORDSVL +  CLOUDY    34  34 100 S6        30.10F WCI  29
6HR MIN TEMP:  34; 6HR MAX TEMP:  35;

LAFAYETTE      CLOUDY    36  34  92 S6        30.10F
6HR MIN TEMP:  35; 6HR MAX TEMP:  37;

TERRE HAUTE    CLOUDY    36  33  89 E3        30.09F
6HR MIN TEMP:  35; 6HR MAX TEMP:  38;


$$

INZ030>032-037>040-046>048-054>057-064-065-190700-
CENTRAL INDIANA

CITY           SKY/WX    TMP DP  RH WIND       PRES   REMARKS
INDIANAPOLIS   CLOUDY    37  33  85 S7        30.10F
6HR MIN TEMP:  36; 6HR MAX TEMP:  37;

-EAGLE CREEK   CLOUDY    37  33  85 S3        30.10F
6HR MIN TEMP:  37; 6HR MAX TEMP:  38;

KOKOMO +       CLOUDY    35  33  92 SW10      30.11S WCI  27
6HR MIN TEMP:  35; 6HR MAX TEMP:  36;

MT COMFORT *+  CLOUDY    36  34  93 SW7       30.11S
SHELBYVILLE    CLOUDY    38  34  85 S8        30.11F
6HR MIN TEMP:  38; 6HR MAX TEMP:  39;


$$

INZ033-034-041-042-049-050-058-059-190700-
EAST CENTRAL INDIANA

CITY           SKY/WX    TMP DP  RH WIND       PRES   REMARKS
MUNCIE         CLOUDY    37  34  89 W6        30.09F
6HR MIN TEMP:  37; 6HR MAX TEMP:  38;


$$

INZ060-061-067>069-081>083-085>088-190700-
SOUTHWEST INDIANA

CITY           SKY/WX    TMP DP  RH WIND       PRES   REMARKS
EVANSVILLE     MOCLDY    40  36  86 E3        30.09F
6HR MIN TEMP:  39; 6HR MAX TEMP:  42;

HUNTINGBURG *+ MOCLDY    37  36  93 CALM      30.12S
6HR MIN TEMP:  36; 6HR MAX TEMP:  39;


$$

INZ062-063-066-070>080-084-089>092-190700-
SOUTH CENTRAL AND SOUTHEAST INDIANA

CITY           SKY/WX    TMP DP  RH WIND       PRES   REMARKS
BLOOMINGTON    CLOUDY    35  32  88 CALM      30.10F FOG
6HR MIN TEMP:  35; 6HR MAX TEMP:  38;

MADISON *+     CLOUDY    36  34  93 CALM      30.13F
SEYMOUR +      MOCLDY    37  36  93 CALM      30.13S

$$





USA.gov is the U.S. government's official web portal to all federal, state and local government web resources and services.